SL-27 R/B (40354 NORAD) Tracking and Keplerian Element Data

This shows tracking and keplerian element data for the satellite.

Feedback or suggestion? Click here.




ElementValue
Catalog40354
NameSL-27 R/B
Epoch Orbit39707
Epoch Day15.90652413
Epoch Year2022
RAAN272.1172
Inclination74.7386
Eccentricity0.0035992
Argument of Perigee171.5629
Mean Anonmoly188.6197
Mean Motion15.42032548
Decay Rate4.117E-05
L11 40354U 14084B 22015.90652413 .00004117 00000+0 95415-4 0 9993
L22 40354 74.7386 272.1172 0035992 171.5629 188.6197 15.42032548397074

Live tracking and technical data element details for SL-27 R/B (NORAD 40354). SL-27 R/B can be tracked NOW for your location showing map with azimuth and elevation plus other details from your city location.

Track the satellite on the map from your city or location and see movement details for azimuth, elevation, latitude, longitude, range, height, and movement on the map or in text.







IsCatalogInMostPopularTable: catalog: 40354, numindb: 518
Update: records affected: 1



GetName: 40354 SL-27 R/B

Hit Count: updated at: Mon, 17 Jan 2022 00:40:21 GMT